This is the latest recevied weather packets stored in our database for station/object G4KVI. If no packets are shown the sender has not sent any weather packets the latest 10 day(s).
| Time | Temp. | Humidity | Pressure | Rain* | Wind** | Luminosity | Snow |
|---|---|---|---|---|---|---|---|
| 1787592005 | 22.22° C | 42% | 1016.2 hPa | 0 mm | - | 94 W/m² | - |
| 1787591705 | 22.22° C | 41% | 1016.2 hPa | 0 mm | - | 136 W/m² | - |
| 1787591405 | 22.22° C | 41% | 1016.2 hPa | 0 mm | - | 149 W/m² | - |
| 1787591105 | 22.22° C | 41% | 1016.4 hPa | 0 mm | - | 138 W/m² | - |
| 1787590805 | 22.22° C | 41% | 1016.3 hPa | 0 mm | - | 190 W/m² | - |
| 1787590505 | 22.78° C | 41% | 1016.4 hPa | 0 mm | - | 207 W/m² | - |
| 1787590205 | 22.78° C | 42% | 1016.5 hPa | 0 mm | - | 226 W/m² | - |
| 1787589905 | 22.78° C | 42% | 1016.5 hPa | 0 mm | - | 233 W/m² | - |
| 1787589605 | 22.78° C | 42% | 1016.5 hPa | 0 mm | - | 255 W/m² | - |
| 1787589305 | 22.78° C | 42% | 1016.5 hPa | 0 mm | - | 262 W/m² | - |
| 1787589005 | 22.78° C | 41% | 1016.7 hPa | 0 mm | - | 94 W/m² | - |
| 1787588705 | 22.78° C | 41% | 1016.6 hPa | 0 mm | - | 268 W/m² | - |
| 1787588405 | 23.33° C | 41% | 1016.8 hPa | 0 mm | - | 292 W/m² | - |
| 1787588105 | 23.33° C | 40% | 1016.7 hPa | 0 mm | - | 335 W/m² | - |
| 1787587805 | 23.33° C | 39% | 1016.7 hPa | 0 mm | - | 327 W/m² | - |
| 1787586005 | 23.33° C | 41% | 1017 hPa | 0 mm | - | 413 W/m² | - |
| 1787585705 | 23.33° C | 41% | 1017 hPa | 0 mm | - | 423 W/m² | - |
| 1787585405 | 23.33° C | 40% | 1017.1 hPa | 0 mm | - | 428 W/m² | - |
| 1787585105 | 23.33° C | 40% | 1017.4 hPa | 0 mm | - | 391 W/m² | - |
| 1787584805 | 23.33° C | 40% | 1017.3 hPa | 0 mm | - | 417 W/m² | - |
| 1787584505 | 22.78° C | 42% | 1017.2 hPa | 0 mm | - | 448 W/m² | - |
| 1787584205 | 22.78° C | 42% | 1017.6 hPa | 0 mm | - | 464 W/m² | - |
| 1787583905 | 22.78° C | 42% | 1017.4 hPa | 0 mm | - | 471 W/m² | - |
| 1787583605 | 22.78° C | 41% | 1017.5 hPa | 0 mm | - | 474 W/m² | - |
| 1787583305 | 23.33° C | 41% | 1017.8 hPa | 0 mm | - | 427 W/m² | - |
* Rain latest hour (hover to see other rain measurements)
** Current wind speed in m/s (hover to see current wind gust speed)